Regional Weather Roundup
Issued by NWS

Current Version | Previous Version | Text Only | Print | Product List | Glossary On
Versions: 1 2 3 4 5 6 7 8 9 10 11 12 13 14 15 16 17 18 19 20 21 22 23 24 25 26 27 28 29 30 31 32 33 34 35 36 37 38 39 40 41 42 43 44 45 46 47 48 49 50
000
ASCA42 TJSJ 291411
RWRPR
PUERTO RICO/U.S. VIRGIN ISLANDS HOURLY WEATHER ROUNDUP
NATIONAL WEATHER SERVICE SAN JUAN PR
1000 AM AST THU JAN 29 2015

PRZ001-004-291500-
PUERTO RICO

CITY           SKY/WX    TMP DP  RH WIND       PRES   REMARKS
SAN JUAN LMM   PTSUNNY   81  72  74 E7        30.06R
AGUADILLA      SUNNY     79  68  69 NE8       30.07R
CEIBA          CLOUDY    81  70  69 NE6       30.08R
$$

PRZ006-007-291500-
U.S. VIRGIN ISLANDS

CITY           SKY/WX    TMP DP  RH WIND       PRES   REMARKS
$$

HOURLY WEATHER ROUNDUP FOR THE NEWS MEDIA

CITY           SKY/WX    TMP DP  RH WIND       PRES   REMARKS
MIAMI          PTSUNNY   62  50  64 VRB3      30.25R
ORLANDO        SUNNY     52  44  74 N3        30.32R
NEW YORK       MOSUNNY   23   3  42 NW6       30.35R WCI  16
NEWARK         MOSUNNY   18   3  52 N8        30.34F WCI   8
CHICAGO        CLOUDY    35  28  75 NW16      29.77R WCI  25
HARTFORD       SUNNY     18  -2  41 NW3       30.30S
BOSTON         MOSUNNY   18   4  54 W5        30.32F WCI  11
DALLAS         PTCLDY    53  41  63 NW7       30.18R
PHILADELPHIA   PTSUNNY   28   8  43 E9        30.33F WCI  19


USA.gov is the U.S. government's official web portal to all federal, state and local government web resources and services.